Hot Springs, VA

11:21 PM EDT on March 22, 2017 (GMT -0400)
Ingalls

Weather History for KHSP - December, 2002

Change the Weather History Date:

Tuesday, December 31, 2002

  Actual Average Record
Temperature  
Mean Temperature 50 °F -  
Max Temperature 55 °F 33 °F 55 °F (2002)
Min Temperature 44 °F 20 °F 6 °F (2000)
Degree Days  
Heating Degree Days 16    
Moisture  
Dew Point 24 °F    
Average Humidity 38    
Maximum Humidity 71    
Minimum Humidity 22    
Precipitation  
Precipitation 0.00 in - - ()
Sea Level Pressure  
Sea Level Pressure 30.03 in    
Wind  
Wind Speed 14 mph (SW)    
Max Wind Speed 18 mph    
Max Gust Speed 24 mph    
Visibility 10 miles    
Events      
Averages and records for this station are not official NWS values.
T = Trace of Precipitation, MM = Missing Value Source: NWS Daily Summary

Daily Weather History Graph

Daily Weather History Graph

Search for Another Location

Airport or City:

Trip Planner

Search our weather history database for the weather conditions in past years. The results will help you decide how hot, cold, wet, or windy it might be!

Date:

Astronomy

Dec. 31, 2002 Rise Set
Actual Time 7:35 AM EST 5:09 PM EST
Civil Twilight 7:05 AM EST 5:39 PM EST
Nautical Twilight 6:32 AM EST 6:12 PM EST
Astronomical Twilight 6:00 AM EST 6:44 PM EST
Moon 5:17 AM EST (12/31) 3:10 PM EST (12/31)
Length of Visible Light 10h 33m
Length of Day
9h 34m
Waning Crescent, 6% of the Moon is Illuminated
Dec 31
Waning Crescent
Jan 2
New
Jan 10
First Quarter
Jan 18
Full
Jan 25
Last Quarter

Hourly Weather History & Observations

Time (EST) Temp. Windchill Dew Point Humidity Pressure Visibility Wind Dir Wind Speed Gust Speed Precip Events Conditions
12:02 AM 44.6 °F 38.4 °F 24.8 °F 46% 30.08 in 10.0 mi WSW 12.7 mph - N/A   Clear
12:23 AM 44.6 °F 37.8 °F 24.8 °F 46% 30.08 in 10.0 mi WSW 15.0 mph - N/A   Clear
12:41 AM 44.6 °F 37.4 °F 26.6 °F 49% 30.08 in 10.0 mi WSW 16.1 mph - N/A   Clear
1:02 AM 44.6 °F 37.4 °F 24.8 °F 46% 30.07 in 10.0 mi WSW 16.1 mph - N/A   Clear
1:23 AM 44.6 °F 37.4 °F 24.8 °F 46% 30.07 in 10.0 mi WSW 16.1 mph - N/A   Clear
1:44 AM 46.4 °F 39.8 °F 23.0 °F 40% 30.07 in 10.0 mi WSW 16.1 mph - N/A   Clear
2:01 AM 44.6 °F 38.1 °F 23.0 °F 43% 30.07 in 10.0 mi WSW 13.8 mph - N/A   Clear
2:21 AM 46.4 °F 41.1 °F 23.0 °F 40% 30.06 in 10.0 mi WSW 11.5 mph - N/A   Clear
2:41 AM 46.4 °F 40.4 °F 21.2 °F 37% 30.08 in 10.0 mi West 13.8 mph - N/A   Clear
3:03 AM 46.4 °F 39.8 °F 24.8 °F 43% 30.07 in 10.0 mi WSW 16.1 mph - N/A   Clear
3:21 AM 48.2 °F - 21.2 °F 34% 30.07 in 10.0 mi WSW 13.8 mph - N/A   Clear
3:41 AM 46.4 °F 41.1 °F 19.4 °F 34% 30.06 in 10.0 mi WSW 11.5 mph - N/A   Clear
4:03 AM 46.4 °F 40.4 °F 21.2 °F 37% 30.06 in 10.0 mi WSW 13.8 mph - N/A   Clear
4:21 AM 46.4 °F 40.1 °F 19.4 °F 34% 30.05 in 10.0 mi WSW 15.0 mph - N/A   Clear
4:44 AM 48.2 °F - 19.4 °F 32% 30.05 in 10.0 mi SW 12.7 mph - N/A   Clear
5:01 AM 48.2 °F - 17.6 °F 30% 30.05 in 10.0 mi SW 15.0 mph - N/A   Clear
5:21 AM 48.2 °F - 17.6 °F 30% 30.05 in 10.0 mi WSW 15.0 mph - N/A   Clear
5:41 AM 48.2 °F - 17.6 °F 30% 30.05 in 10.0 mi WSW 13.8 mph - N/A   Clear
6:01 AM 48.2 °F - 17.6 °F 30% 30.05 in 10.0 mi SW 12.7 mph - N/A   Clear
6:21 AM 48.2 °F - 17.6 °F 30% 30.06 in 10.0 mi SW 15.0 mph - N/A   Clear
6:44 AM 51.8 °F - 17.6 °F 26% 30.05 in 10.0 mi SW 17.3 mph - N/A   Clear
7:01 AM 51.8 °F - 15.8 °F 24% 30.05 in 10.0 mi SW 15.0 mph 19.6 mph N/A   Clear
7:21 AM 50.0 °F - 15.8 °F 26% 30.05 in 10.0 mi SW 15.0 mph - N/A   Clear
7:44 AM 50.0 °F - 15.8 °F 26% 30.06 in 10.0 mi SW 15.0 mph 21.9 mph N/A   Clear
8:02 AM 50.0 °F - 15.8 °F 26% 30.06 in 10.0 mi SW 15.0 mph 20.7 mph N/A   Clear
8:21 AM 51.8 °F - 15.8 °F 24% 30.05 in 10.0 mi SW 13.8 mph 20.7 mph N/A   Clear
8:43 AM 51.8 °F - 15.8 °F 24% 30.06 in 10.0 mi SW 15.0 mph 19.6 mph N/A   Clear
9:04 AM 51.8 °F - 15.8 °F 24% 30.06 in 10.0 mi SW 12.7 mph - N/A   Clear
9:21 AM 51.8 °F - 15.8 °F 24% 30.07 in 10.0 mi SW 13.8 mph - N/A   Clear
9:41 AM 53.6 °F - 17.6 °F 24% 30.07 in 10.0 mi SW 15.0 mph 20.7 mph N/A   Clear
10:01 AM 53.6 °F - 15.8 °F 22% 30.07 in 10.0 mi SW 10.4 mph - N/A   Clear
10:21 AM 53.6 °F - 17.6 °F 24% 30.06 in 10.0 mi WSW 10.4 mph - N/A   Clear
10:41 AM 53.6 °F - 19.4 °F 26% 30.06 in 10.0 mi SW 12.7 mph 16.1 mph N/A   Clear
11:01 AM 53.6 °F - 17.6 °F 24% 30.05 in 10.0 mi SW 18.4 mph 24.2 mph N/A   Clear
11:23 AM 53.6 °F - 17.6 °F 24% 30.04 in 10.0 mi SW 13.8 mph 19.6 mph N/A   Clear
11:41 AM 53.6 °F - 17.6 °F 24% 30.03 in 10.0 mi SW 15.0 mph - N/A   Clear
12:03 PM 55.4 °F - 19.4 °F 25% 30.02 in 10.0 mi SW 12.7 mph 19.6 mph N/A   Clear
12:21 PM 55.4 °F - 21.2 °F 26% 30.01 in 10.0 mi SW 11.5 mph 16.1 mph N/A   Clear
12:41 PM 55.4 °F - 21.2 °F 26% 30.00 in 10.0 mi SW 15.0 mph 19.6 mph N/A   Clear
1:01 PM 55.4 °F - 21.2 °F 26% 29.99 in 10.0 mi SW 15.0 mph 18.4 mph N/A   Clear
1:23 PM 53.6 °F - 23.0 °F 30% 29.98 in 10.0 mi WSW 11.5 mph - N/A   Clear
1:41 PM 53.6 °F - 23.0 °F 30% 29.98 in 10.0 mi SW 16.1 mph - N/A   Clear
2:04 PM 55.4 °F - 24.8 °F 31% 29.96 in 10.0 mi SSW 10.4 mph - N/A   Clear
2:21 PM 55.4 °F - 28.4 °F 36% 29.97 in 10.0 mi SSW 12.7 mph 17.3 mph N/A   Clear
2:44 PM 55.4 °F - 28.4 °F 36% 29.97 in 10.0 mi SW 13.8 mph 18.4 mph N/A   Clear
3:01 PM 53.6 °F - 30.2 °F 41% 29.97 in 10.0 mi South 5.8 mph - N/A   Clear
3:22 PM 53.6 °F - 32.0 °F 44% 29.98 in 10.0 mi South 9.2 mph - N/A   Clear
3:41 PM 53.6 °F - 33.8 °F 47% 29.98 in 10.0 mi South 9.2 mph - N/A   Clear
4:03 PM 51.8 °F - 33.8 °F 50% 29.98 in 10.0 mi South 11.5 mph - N/A   Clear
4:21 PM 50.0 °F - 35.6 °F 58% 29.99 in 10.0 mi South 9.2 mph - N/A   Clear
4:44 PM 48.2 °F - 35.6 °F 62% 29.99 in 10.0 mi SSW 13.8 mph 17.3 mph N/A   Clear
5:03 PM 50.0 °F - 37.4 °F 62% 29.99 in 10.0 mi SW 13.8 mph 18.4 mph N/A   Clear
5:21 PM 51.8 °F - 37.4 °F 58% 29.99 in 10.0 mi SW 15.0 mph - N/A   Scattered Clouds
5:41 PM 51.8 °F - 37.4 °F 58% 30.01 in 10.0 mi SW 17.3 mph - N/A   Mostly Cloudy
6:01 PM 51.8 °F - 39.2 °F 62% 30.01 in 10.0 mi WSW 13.8 mph - N/A   Mostly Cloudy
6:23 PM 51.8 °F - 41.0 °F 67% 30.01 in 10.0 mi WSW 15.0 mph - N/A   Scattered Clouds
6:41 PM 50.0 °F - 39.2 °F 66% 30.01 in 10.0 mi SW 10.4 mph - N/A   Clear
7:01 PM 50.0 °F - 41.0 °F 71% 30.01 in 10.0 mi SW 9.2 mph - N/A   Clear
7:21 PM 51.8 °F - 41.0 °F 67% 30.01 in 10.0 mi SSW 6.9 mph - N/A   Clear
7:41 PM 51.8 °F - 41.0 °F 67% 30.01 in 10.0 mi SSW 8.1 mph - N/A   Scattered Clouds
8:01 PM 50.0 °F - 41.0 °F 71% 30.00 in 10.0 mi SW 8.1 mph - N/A   Scattered Clouds
8:23 PM 51.8 °F - 42.8 °F 71% 30.00 in 10.0 mi SW 9.2 mph - N/A   Mostly Cloudy
8:41 PM 51.8 °F - 42.8 °F 71% 30.00 in 10.0 mi SW 10.4 mph - N/A   Overcast
9:01 PM 51.8 °F - 44.6 °F 76% 30.01 in 10.0 mi SW 9.2 mph - N/A   Overcast
9:22 PM 50.0 °F - 44.6 °F 82% 30.00 in 10.0 mi WSW 8.1 mph - N/A   Overcast
9:41 PM 48.2 °F - 44.6 °F 87% 30.00 in 10.0 mi SW 8.1 mph - N/A   Overcast
10:04 PM 48.2 °F - 44.6 °F 87% 30.00 in 10.0 mi SSW 5.8 mph - N/A   Overcast
10:21 PM 48.2 °F - 44.6 °F 87% 29.99 in 5.0 mi South 5.8 mph - N/A   Overcast
10:44 PM 46.4 °F 44.3 °F 44.6 °F 93% 29.98 in 3.0 mi South 4.6 mph - N/A   Overcast
11:01 PM 46.4 °F - 44.6 °F 93% 29.98 in 3.0 mi Calm Calm - N/A   Overcast
11:21 PM 48.2 °F - 44.6 °F 87% 29.97 in 10.0 mi SSW 3.5 mph - N/A   Overcast
11:41 PM 48.2 °F - 46.4 °F 93% 29.95 in 10.0 mi Calm Calm - N/A   Scattered Clouds